Location: Arcones
(41.1182°N, 3.7238°W)
Time: 04:39:09
(UTC+00:00)

IRAS Rocket - Pass Details

Date: 15 March 2026
Orbit: 845 x 876 km, 100.1° (Epoch: 15 April)

Event Time Altitude Azimuth Distance (km) Brightness Sun altitude
Rises 20:11:27 0° 177° (S) 3,452 7.2 -21.3°
Reaches altitude 10° 20:13:53 10° 182° (S) 2,516 6.5 -21.7°
Maximum altitude 20:19:20 53° 258° (WSW) 1,068 5.0 -22.7°
Drops below altitude 10° 20:24:48 10° 335° (NNW) 2,518 7.2 -23.6°
Sets 20:27:15 0° 340° (NNW) 3,455 7.9 -24.1°
